Location: Bas-Clignon
(44.2000°N, 6.6333°E)
Time: 03:00:36
(UTC+00:00)

Feng Yun 1-1 Rocket - Pass Details

Date: 03 February 2023
Orbit: 830 x 933 km, 99.1° (Epoch: 27 March)

Event Time Altitude Azimuth Distance (km) Brightness Sun altitude
Rises 18:28:07 0° 153° (SSE) 3,460 7.2 -18.6°
Reaches altitude 10° 18:30:32 10° 150° (SSE) 2,511 6.4 -19.0°
Maximum altitude 18:36:01 62° 71° (ENE) 960 4.2 -20.0°
Drops below altitude 10° 18:41:24 10° 352° (N) 2,470 6.7 -21.0°
Sets 18:43:46 0° 349° (N) 3,400 7.5 -21.4°
